Weather History for KBML - October, 2013

Change the Weather History Date:

Tuesday, October 8, 2013

  Actual Average Record
Temperature  
Mean Temperature 42 °F -  
Max Temperature 57 °F 57 °F 77 °F (2011)
Min Temperature 30 °F 31 °F 21 °F (1999)
Degree Days  
Heating Degree Days 22    
Moisture  
Dew Point 37 °F    
Average Humidity 68    
Maximum Humidity 96    
Minimum Humidity 40    
Precipitation  
Precipitation 0.00 in - - ()
Sea Level Pressure  
Sea Level Pressure 30.19 in    
Wind  
Wind Speed 4 mph (WNW)    
Max Wind Speed 12 mph    
Max Gust Speed 29 mph    
Visibility 10 miles    
Events      
Averages and records for this station are not official NWS values.
T = Trace of Precipitation, MM = Missing Value Source: NWS Daily Summary

Daily Weather History Graph

Daily Weather History Graph

Search for Another Location

Airport or City:

Trip Planner

Search our weather history database for the weather conditions in past years. The results will help you decide how hot, cold, wet, or windy it might be!

Date:

Astronomy

Oct. 08, 2013 Rise Set
Actual Time 6:51 AM EDT 6:12 PM EDT
Civil Twilight 6:22 AM EDT 6:41 PM EDT
Nautical Twilight 5:48 AM EDT 7:14 PM EDT
Astronomical Twilight 5:14 AM EDT 7:48 PM EDT
Moon 10:51 AM EDT (10/8) 8:36 PM EDT (10/8)
Length of Visible Light 12h 19m
Length of Day
11h 20m
Waxing Crescent, 16% of the Moon is Illuminated
Oct 8
Waxing Crescent
Oct 11
First Quarter
Oct 18
Full
Oct 26
Last Quarter
Nov 3
New

Hourly Weather History & Observations

Time (EDT) Temp. Windchill Dew Point Humidity Pressure Visibility Wind Dir Wind Speed Gust Speed Precip Events Conditions
12:52 AM 54.0 °F - 46.9 °F 77% 29.89 in 10.0 mi Calm Calm - N/A   Clear
1:52 AM 52.0 °F - 46.9 °F 83% 29.91 in 10.0 mi Calm Calm - N/A   Scattered Clouds
2:52 AM 51.1 °F - 48.0 °F 89% 29.91 in 10.0 mi Calm Calm - N/A   Overcast
3:52 AM 53.1 °F - 45.0 °F 74% 29.93 in 10.0 mi Variable 3.5 mph - N/A   Mostly Cloudy
4:52 AM 50.0 °F - 41.0 °F 71% 30.00 in 10.0 mi Variable 6.9 mph - N/A   Partly Cloudy
5:52 AM 46.9 °F - 37.9 °F 71% 30.04 in 10.0 mi Variable 3.5 mph - N/A   Clear
6:52 AM 46.0 °F 42.5 °F 37.0 °F 71% 30.08 in 10.0 mi Variable 6.9 mph 17.3 mph N/A   Scattered Clouds
7:52 AM 46.0 °F 40.6 °F 35.1 °F 66% 30.12 in 10.0 mi WNW 11.5 mph 28.8 mph N/A   Partly Cloudy
8:18 AM 46.4 °F 41.9 °F 35.6 °F 66% 30.13 in 10.0 mi WNW 9.2 mph 18.4 mph N/A   Mostly Cloudy
8:50 AM 46.4 °F 41.9 °F 37.4 °F 71% 30.15 in 10.0 mi West 9.2 mph 17.3 mph N/A   Overcast
8:52 AM 46.9 °F - 37.0 °F 68% 30.17 in 10.0 mi Variable 6.9 mph - N/A   Overcast
9:52 AM 48.9 °F - 36.0 °F 61% 30.19 in 10.0 mi NW 8.1 mph 18.4 mph N/A   Overcast
10:52 AM 51.1 °F - 37.0 °F 59% 30.20 in 10.0 mi WNW 8.1 mph - N/A   Mostly Cloudy
11:52 AM 53.1 °F - 36.0 °F 52% 30.23 in 10.0 mi West 6.9 mph 20.7 mph N/A   Scattered Clouds
12:52 PM 55.0 °F - 36.0 °F 49% 30.22 in 10.0 mi Variable 6.9 mph - N/A   Clear
1:52 PM 55.9 °F - 36.0 °F 47% 30.22 in 10.0 mi Variable 6.9 mph 19.6 mph N/A   Mostly Cloudy
2:52 PM 55.9 °F - 34.0 °F 44% 30.26 in 10.0 mi West 10.4 mph 18.4 mph N/A   Partly Cloudy
3:52 PM 55.9 °F - 32.0 °F 40% 30.27 in 10.0 mi WNW 8.1 mph 18.4 mph N/A   Clear
4:52 PM 55.0 °F - 32.0 °F 42% 30.28 in 10.0 mi Variable 5.8 mph 18.4 mph N/A   Clear
5:52 PM 52.0 °F - 34.0 °F 50% 30.32 in 10.0 mi Variable 3.5 mph - N/A   Clear
6:52 PM 48.0 °F - 35.1 °F 61% 30.35 in 10.0 mi Calm Calm - N/A   Clear
7:52 PM 39.0 °F - 35.1 °F 86% 30.37 in 10.0 mi Calm Calm - N/A   Clear
8:52 PM 34.0 °F - 32.0 °F 92% 30.40 in 10.0 mi Calm Calm - N/A   Clear
9:52 PM 32.0 °F - 30.9 °F 96% 30.41 in 10.0 mi Calm Calm - N/A   Partly Cloudy
10:52 PM 30.9 °F - 30.0 °F 96% 30.43 in 10.0 mi Calm Calm - N/A   Scattered Clouds
11:52 PM 30.9 °F - 28.9 °F 92% 30.43 in 10.0 mi Calm Calm - N/A   Mostly Cloudy